| time (UTC) | temp F | wind direction | speed MPH | gust MPH | rain 1hr in | rain 24hr in | rain mn in | humidity % | barometer mb |
| 20260902101653 | 73 | 276 | 1.0 | 3.0 | 0.00 | 0.00 | 0.00 | 58 | 1022.8 |
| 20260902094649 | 74 | 331 | 0.0 | 2.0 | 0.00 | 0.00 | 0.00 | 57 | 1023.1 |
| 20260902093149 | 73 | 241 | 1.0 | 3.0 | 0.00 | 0.00 | 0.00 | 57 | 1023.2 |
| 20260902091649 | 74 | 250 | 1.0 | 3.0 | 0.00 | 0.00 | 0.00 | 59 | 1023.2 |
| 20260902090149 | 74 | 215 | 1.0 | 3.0 | 0.00 | 0.00 | 0.00 | 57 | 1023.1 |
| 20260902084650 | 71 | 49 | 1.0 | 3.0 | 0.00 | 0.00 | 0.00 | 62 | 1023.3 |
| 20260902083148 | 71 | 258 | 1.0 | 3.0 | 0.00 | 0.00 | 0.00 | 64 | 1023.3 |
| 20260902081650 | 68 | 63 | 0.0 | 0.0 | 0.00 | 0.00 | 0.00 | 67 | 1023.3 |
| 20260902080149 | 69 | 65 | 0.0 | 0.0 | 0.00 | 0.00 | 0.00 | 66 | 1023.3 |
| 20260902074650 | 68 | 195 | 0.0 | 0.0 | 0.00 | 0.00 | 0.00 | 70 | 1023.4 |
| 20260902073147 | 67 | 195 | 0.0 | 0.0 | 0.00 | 0.00 | 0.00 | 73 | 1023.3 |
| 20260902071645 | 65 | 195 | 1.0 | 3.0 | 0.00 | 0.00 | 0.00 | 77 | 1023.3 |
| 20260902070144 | 63 | 195 | 0.0 | 2.0 | 0.00 | 0.00 | 0.00 | 82 | 1023.3 |
| 20260902064645 | 59 | 195 | 0.0 | 0.0 | 0.00 | 0.00 | 0.00 | 88 | 1023.2 |
| 20260902063147 | 57 | 195 | 0.0 | 0.0 | 0.00 | 0.00 | 0.00 | 90 | 1023.2 |
| 20260902061649 | 56 | 194 | 0.0 | 0.0 | 0.00 | 0.00 | 0.00 | 92 | 1023.2 |
| 20260902060147 | 54 | 194 | 0.0 | 0.0 | 0.00 | 0.00 | 0.00 | 94 | 1023.1 |
| 20260902054646 | 53 | 195 | 0.0 | 0.0 | 0.00 | 0.00 | 0.00 | 94 | 1023.0 |
| 20260902051641 | 52 | 194 | 0.0 | 0.0 | 0.00 | 0.00 | 0.00 | 95 | 1022.8 |
| 20260902050140 | 51 | 194 | 0.0 | 0.0 | 0.00 | 0.00 | 0.00 | 95 | 1022.9 |
| 20260902043140 | 51 | 194 | 0.0 | 0.0 | 0.00 | 0.00 | 0.00 | 95 | 1022.7 |
| 20260902033142 | 51 | 194 | 0.0 | 0.0 | 0.00 | 0.00 | 0.00 | 94 | 1022.6 |
| 20260902031638 | 52 | 194 | 0.0 | 0.0 | 0.00 | 0.00 | 0.00 | 93 | 1022.9 |
| 20260902030138 | 53 | 194 | 0.0 | 0.0 | 0.00 | 0.00 | 0.00 | 93 | 1022.6 |
| 20260902024638 | 52 | 194 | 0.0 | 0.0 | 0.00 | 0.00 | 0.00 | 94 | 1022.9 |
| 20260902023139 | 52 | 194 | 0.0 | 0.0 | 0.00 | 0.00 | 0.00 | 93 | 1023.1 |
| 20260902021639 | 52 | 194 | 0.0 | 0.0 | 0.00 | 0.00 | 0.00 | 93 | 1023.1 |
| 20260902020138 | 53 | 194 | 0.0 | 0.0 | 0.00 | 0.00 | 0.00 | 93 | 1023.2 |
| 20260902014640 | 53 | 194 | 0.0 | 0.0 | 0.00 | 0.00 | 0.00 | 93 | 1023.1 |
| 20260902013138 | 53 | 194 | 0.0 | 0.0 | 0.00 | 0.00 | 0.00 | 93 | 1023.1 |
| 20260902011639 | 53 | 194 | 0.0 | 0.0 | 0.00 | 0.00 | 0.00 | 91 | 1023.2 |
| 20260902010142 | 54 | 194 | 0.0 | 0.0 | 0.00 | 0.00 | 0.00 | 91 | 1023.1 |
| 20260902004640 | 55 | 194 | 0.0 | 0.0 | 0.00 | 0.00 | 0.00 | 91 | 1023.2 |
| 20260902003142 | 55 | 194 | 0.0 | 0.0 | 0.00 | 0.00 | 0.00 | 91 | 1023.3 |
| 20260902001640 | 55 | 194 | 0.0 | 1.0 | 0.00 | 0.00 | 0.00 | 92 | 1023.4 |
| 20260902000142 | 55 | 133 | 0.0 | 0.0 | 0.00 | 0.00 | 0.00 | 92 | 1023.3 |
| 20260901234640 | 55 | 133 | 0.0 | 0.0 | 0.00 | 0.00 | 0.00 | 92 | 1023.2 |
| 20260901233135 | 55 | 133 | 0.0 | 0.0 | 0.00 | 0.00 | 0.00 | 92 | 1023.3 |
| 20260901230136 | 56 | 133 | 0.0 | 0.0 | 0.00 | 0.00 | 0.00 | 91 | 1023.4 |
| 20260901224634 | 56 | 133 | 0.0 | 0.0 | 0.00 | 0.00 | 0.00 | 90 | 1023.5 |
| 20260901223135 | 56 | 133 | 0.0 | 0.0 | 0.00 | 0.00 | 0.00 | 90 | 1023.4 |
| 20260901221634 | 57 | 133 | 0.0 | 0.0 | 0.00 | 0.00 | 0.00 | 88 | 1023.5 |
| 20260901220141 | 58 | 133 | 0.0 | 1.0 | 0.00 | 0.00 | 0.00 | 89 | 1023.5 |
| 20260901214632 | 57 | 133 | 0.0 | 0.0 | 0.00 | 0.00 | 0.00 | 89 | 1023.6 |
| 20260901213135 | 58 | 133 | 0.0 | 0.0 | 0.00 | 0.00 | 0.00 | 88 | 1023.5 |
| 20260901211630 | 58 | 133 | 0.0 | 0.0 | 0.00 | 0.00 | 0.00 | 87 | 1023.6 |
| 20260901210130 | 59 | 133 | 0.0 | 1.0 | 0.00 | 0.00 | 0.00 | 86 | 1023.4 |
| 20260901204630 | 58 | 133 | 0.0 | 0.0 | 0.00 | 0.00 | 0.00 | 86 | 1023.4 |
| 20260901203131 | 59 | 133 | 0.0 | 0.0 | 0.00 | 0.00 | 0.00 | 85 | 1023.3 |
| 20260901201631 | 60 | 133 | 0.0 | 0.0 | 0.00 | 0.00 | 0.00 | 83 | 1023.2 |
| 20260901200130 | 61 | 133 | 0.0 | 1.0 | 0.00 | 0.00 | 0.00 | 81 | 1023.1 |
| 20260901194629 | 61 | 133 | 0.0 | 0.0 | 0.00 | 0.00 | 0.00 | 79 | 1023.0 |
| 20260901193136 | 62 | 133 | 0.0 | 0.0 | 0.00 | 0.00 | 0.00 | 78 | 1023.0 |
| 20260901191630 | 64 | 133 | 0.0 | 0.0 | 0.00 | 0.00 | 0.00 | 75 | 1022.8 |
| 20260901190130 | 65 | 133 | 0.0 | 1.0 | 0.00 | 0.00 | 0.00 | 73 | 1022.7 |
| 20260901184630 | 65 | 133 | 0.0 | 0.0 | 0.00 | 0.00 | 0.00 | 71 | 1022.5 |
| 20260901183136 | 67 | 133 | 0.0 | 2.0 | 0.00 | 0.00 | 0.00 | 68 | 1022.5 |
| 20260901181632 | 67 | 331 | 0.0 | 2.0 | 0.00 | 0.00 | 0.00 | 66 | 1022.4 |
| 20260901180135 | 68 | 331 | 0.0 | 1.0 | 0.00 | 0.00 | 0.00 | 65 | 1022.3 |
| 20260901174629 | 69 | 331 | 0.0 | 3.0 | 0.00 | 0.00 | 0.00 | 62 | 1022.2 |
| 20260901173130 | 71 | 103 | 0.0 | 3.0 | 0.00 | 0.00 | 0.00 | 59 | 1022.1 |
| 20260901171633 | 72 | 33 | 0.0 | 2.0 | 0.00 | 0.00 | 0.00 | 56 | 1022.1 |
| 20260901170129 | 73 | 70 | 1.0 | 4.0 | 0.00 | 0.00 | 0.00 | 55 | 1022.1 |
| 20260901164631 | 74 | 229 | 2.0 | 6.0 | 0.00 | 0.00 | 0.00 | 53 | 1022.2 |
| 20260901163130 | 74 | 254 | 1.0 | 3.0 | 0.00 | 0.00 | 0.00 | 52 | 1022.1 |
| 20260901161630 | 74 | 304 | 2.0 | 7.0 | 0.00 | 0.00 | 0.00 | 52 | 1022.1 |
| 20260901160129 | 76 | 277 | 2.0 | 7.0 | 0.00 | 0.00 | 0.00 | 49 | 1022.0 |
| 20260901154633 | 76 | 209 | 2.0 | 8.0 | 0.00 | 0.00 | 0.00 | 48 | 1021.8 |
| 20260901153128 | 77 | 126 | 2.0 | 6.0 | 0.00 | 0.00 | 0.00 | 48 | 1021.8 |
| 20260901151629 | 78 | 276 | 2.0 | 5.0 | 0.00 | 0.00 | 0.00 | 48 | 1022.0 |
| 20260901150128 | 77 | 315 | 2.0 | 8.0 | 0.00 | 0.00 | 0.00 | 46 | 1022.0 |
| 20260901143130 | 75 | 65 | 0.0 | 2.0 | 0.00 | 0.00 | 0.00 | 52 | 1022.0 |
| 20260901141631 | 73 | 228 | 1.0 | 4.0 | 0.00 | 0.00 | 0.00 | 55 | 1022.1 |
| 20260901134631 | 76 | 234 | 2.0 | 10.0 | 0.00 | 0.00 | 0.00 | 51 | 1022.2 |
| 20260901133127 | 75 | 355 | 3.0 | 11.0 | 0.00 | 0.00 | 0.00 | 49 | 1022.4 |
| 20260901131634 | 75 | 332 | 3.0 | 8.0 | 0.00 | 0.00 | 0.00 | 49 | 1022.5 |
| 20260901130453 | 78 | 245 | 2.0 | 8.0 | 0.00 | 0.00 | 0.00 | 45 | 1022.6 |
| 20260901124956 | 77 | 324 | 2.0 | 8.0 | 0.00 | 0.00 | 0.00 | 47 | 1022.7 |
| 20260901123456 | 75 | 213 | 2.0 | 7.0 | 0.00 | 0.00 | 0.00 | 52 | 1022.8 |
| 20260901121956 | 75 | 164 | 1.0 | 6.0 | 0.00 | 0.00 | 0.00 | 51 | 1022.8 |
| 20260901120453 | 74 | 205 | 2.0 | 5.0 | 0.00 | 0.00 | 0.00 | 55 | 1022.7 |
| 20260901111952 | 76 | 215 | 2.0 | 8.0 | 0.00 | 0.00 | 0.00 | 52 | 1023.1 |
| 20260901110453 | 76 | 315 | 2.0 | 7.0 | 0.00 | 0.00 | 0.00 | 51 | 1023.2 |
| 20260901104956 | 74 | 154 | 2.0 | 7.0 | 0.00 | 0.00 | 0.00 | 58 | 1023.3 |
| 20260901103455 | 73 | 0 | 1.0 | 6.0 | 0.00 | 0.00 | 0.00 | 55 | 1023.3 |